Regional Weather Roundup
Issued by NWS

Home | Current Version | Previous Version | Graphics & Text | Print | Product List | Glossary On
Versions: 1 2 3 4 5 6 7 8 9 10 11 12 13 14 15 16 17 18 19 20 21 22 23 24 25 26 27
000
ASUS45 KCYS 082010
RWRWY

WYOMING REGIONAL WEATHER ROUNDUP
NATIONAL WEATHER SERVICE CHEYENNE WY
100 PM MST THU DEC 08 2016

NOTE:  "FAIR" INDICATES FEW OR NO CLOUDS BELOW 12,000 FEET
WITH NO SIGNIFICANT WEATHER AND/OR OBSTRUCTIONS TO VISIBILITY.

WYZ001-082100-
YELLOWSTONE NATIONAL PARK

CITY           SKY/WX    TMP DP  RH WIND       PRES   REMARKS
LK YELLOWSTONE   N/A      8  -5  55 VRB5      30.08F WCI   0
W YELLOWSTONE  NOT AVBL

$$
WYZ002>013-054>058-071-098>099-082100-
NORTHERN WYOMING

CITY           SKY/WX    TMP DP  RH WIND       PRES   REMARKS
JACKSON        FAIR      -2  -6  84 CALM      30.20F
CODY           FAIR       6  -4  63 S3        30.25F
GREYBULL       FAIR       8  -3  61 S5        30.35F WCI   0
WORLAND        FAIR       9   1  70 VRB3      30.33F
SHERIDAN       FAIR       4  -5  66 CALM      30.38F
BUFFALO        FAIR       8  -5  55 SE10      30.29F WCI  -6
GILLETTE       FAIR       6  -3  66 S9        30.37F WCI  -8
HULETT         FAIR       9  -4  56 CALM      30.41F
NEWCASTLE      FAIR       7  -4  61 CALM      30.43F

$$
WYZ014>020-022>026-101>103-082100-
CENTRAL WYOMING

CITY           SKY/WX    TMP DP  RH WIND       PRES   REMARKS
BIG PINEY      FAIR       7  -3  64 E3        30.18F
PINEDALE       FAIR       5  -4  66 MISG      30.19F
DUBOIS         FAIR      12  -4  48 S3        30.07F
LANDER         FAIR       8  -1  66 CALM      30.21F
RIVERTON       FAIR      10   1  67 NE5       30.23F WCI   2
CASPER         FAIR      -5  -9  83 CALM      30.28F
DOUGLAS        FAIR      -1  -8  72 CALM      30.33F

$$
WYZ021-027>030-104>119-082100-
SOUTHERN WYOMING

CITY           SKY/WX    TMP DP  RH WIND       PRES   REMARKS
EVANSTON       LGT SNOW  10  -1  61 E12       30.12F WCI  -5
FORT BRIDGER   CLOUDY     4  -1  77 N3        30.19F
ROCK SPRINGS   FAIR       7   0  73 CALM      30.17F
DIXON          FAIR      21   2  44 SW12G17   30.23F WCI   9
RAWLINS        FAIR      13  -2  51 E3        30.17F
SARATOGA       FAIR      19   3  49 SE12G18   30.17F WCI   7
LARAMIE        FAIR      18  -2  41 S12       30.12F WCI   5
CHEYENNE       FAIR      10   3  73 S10       30.24F WCI  -4
TORRINGTON     FAIR      13  -1  54 VRB3      30.40F
PINE BLUFFS    FAIR      12   1  62 S8        30.36F WCI   1

$$




USA.gov is the U.S. government's official web portal to all federal, state and local government web resources and services.